STARLINK-5198 (54099 NORAD) Tracking and Keplerian Element Data

This shows tracking and keplerian element data for the satellite.

Feedback or suggestion? Click here.




ElementValue
Catalog54099
NameSTARLINK-5198
Epoch Orbit549
Epoch Day325.33334491
Epoch Year2022
RAAN350.8753
Inclination53.2151
Eccentricity0.0004043
Argument of Perigee4.46
Mean Anonmoly351.1121
Mean Motion15.73180931
Decay Rate4.893E-05
L11 54099U 22136BA 22325.33334491 .00004893 00000+0 39308-4 0 9995
L22 54099 53.2151 350.8753 0004043 4.4600 351.1121 15.73180931 5492



Live tracking and technical data element details for STARLINK-5198 (NORAD 54099). STARLINK-5198 can be tracked NOW for your location showing map with azimuth and elevation plus other details from your city location.







IsCatalogInMostPopularTable: catalog: 54099, numindb: 1
Update: records affected: 1



GetName: 54099 STARLINK-5198

Hit Count: updated at: Mon, 28 Nov 2022 21:25:56 GMT